Location: Arpaise
(41.0333°N, 14.7333°E)
Time: 01:36:09
(UTC+00:00)

BREEZE-M (TANK) - Pass Details

Date: 05 July 2020
Orbit: 314 x 17584 km, 49.5° (Epoch: 11 August)

Event Time Altitude Azimuth Distance (km) Brightness Sun altitude
Exits shadow 20:40:00 19° 196° (SSW) 1,605 4.5 -17.9°
Maximum altitude 20:42:54 49° 127° (SE) 1,332 4.0 -18.2°
Drops below altitude 10° 20:56:24 10° 58° (ENE) 6,626 8.0 -19.6°
Sets 21:06:47 0° 56° (NE) 10,301 9.0 -20.6°
